Hourly Data Report for July 18, 2021

BORDEN AWOS
ONTARIO
Current Station Operator: DND

44°16'20.000" N
79°54'42.000" W
222.50 m
611B002
71534
YBN

Download Data

Hourly Data (July 2021)
Hourly Data Report for July 18, 2021
TIME
LST
Temp Definition
°C
Dew Point Definition
°C
Rel Hum Definition
%
Precip. Amount Definition
mm

Wind Dir Definition
10's deg

Wind Spd Definition
km/h
Visibility Definition
km
Stn Press Definition
kPa
Hmdx Definition


Wind Chill Definition


Weather Definition


00:00 16.3 15.3 94     0 14.5 99.32     LegendNANA
01:00 15.3 14.9 98     0 14.5 99.31     LegendNANA
02:00
03:00 14.5 13.9 96     0 14.5 99.30     LegendNANA
04:00 14.2 13.8 97     0 14.5 99.32     LegendNANA
05:00 13.8 13.5 98     0 14.5 99.36     LegendNANA
06:00 14.1 13.6 97     0 14.5 99.38     LegendNANA
07:00 18.2 16.3 89     0 14.5 99.41     LegendNANA
08:00 21.8 17.5 77   35 11 14.5 99.42 27   LegendNANA
09:00 24.0 18.1 70   33 9 14.5 99.41 30   LegendNANA
10:00 25.2 17.9 64   33 11 14.5 99.40 31   LegendNANA
11:00 26.7 17.9 59   36 13 14.5 99.38 33   LegendNANA
12:00 27.4 16.9 53   34 17 14.5 99.36 33   LegendNANA
13:00 27.6 16.7 52   35 17 14.5 99.34 33   LegendNANA
14:00 28.0 17.1 52   31 15 14.5 99.33 33   LegendNANA
15:00 27.5 15.4 48   31 19 14.5 99.30 32   LegendNANA
16:00 27.2 16.2 51   35 11 14.5 99.28 32   LegendNANA
17:00 26.3 16.1 54   33 9 14.5 99.27 31   LegendNANA
18:00 24.8 15.7 57   33 9 14.5 99.26 29   LegendNANA
19:00 22.8 15.5 63   36 6 14.5 99.28 27   LegendNANA
20:00 19.8 15.5 76   4 7 14.5 99.28     LegendNANA
21:00 17.6 15.6 88   30 4 14.5 99.31     LegendNANA
22:00 16.7 15.6 93     0 14.5 99.32     LegendNANA
23:00 16.3 15.5 95     0 14.5 99.31     LegendNANA

Notes on Data Quality.

Legend

  • E = Estimated
  • M = Missing
  • NA = Not Available*
  • [empty] = Indicates an unobserved value
Date modified: